Location: Mattaponi
(37.5353°N, 76.7712°W)
Time: 15:41:55
(UTC+00:00)

BlueWalker 3 - Visible Passes

Search period start: 19 April 2024 00:00
Search period end: 29 April 2024 00:00
Orbit: 485 x 495 km, 53.2° (Epoch: 19 April)

Date Brightness Start Highest point End Pass type
(mag) Time Alt. Az. Time Alt. Az. Time Alt. Az.
19 Apr 3.3 01:14:26 10° WSW 01:18:02 40° NW 01:21:39 10° NE visible
19 Apr 5.2 02:56:02 10° NW 02:57:09 11° NNW 02:58:15 10° N visible
20 Apr 3.2 00:49:47 10° WSW 00:53:25 42° NW 00:57:03 10° NE visible
20 Apr 5.1 02:31:15 10° NW 02:32:29 11° NNW 02:33:44 10° N visible
21 Apr 3.1 00:25:07 10° WSW 00:28:46 44° NW 00:32:26 10° NE visible
21 Apr 5.1 02:06:27 10° NW 02:07:49 12° NNW 02:09:11 10° N visible
22 Apr 5.0 01:41:39 10° NW 01:43:08 12° NNW 01:44:37 10° N visible
23 Apr 4.9 01:16:50 10° NW 01:18:25 12° NNW 01:20:00 10° N visible
24 Apr 4.9 00:52:00 10° NW 00:53:41 12° NNW 00:55:22 10° N visible
25 Apr 4.8 00:27:08 10° NW 00:28:55 13° NNW 00:30:43 10° N visible
26 Apr 5.1 03:21:42 10° N 03:22:12 11° N 03:22:12 11° N visible
27 Apr 4.8 02:57:00 10° N 02:58:13 13° N 02:58:13 13° N visible
28 Apr 4.6 02:32:16 10° N 02:34:01 13° NNE 02:34:13 13° NNE visible
